Fort Campbell, KY

7:43 AM CST on February 22, 2018 (GMT -0600)
Campbell Army Air Field

Weather History for KHOP - October, 2012

Change the Weather History Date:

Wednesday, October 24, 2012

  Actual Average Record
Temperature  
Mean Temperature 66 °F -  
Max Temperature 80 °F 67 °F 84 °F (2000)
Min Temperature 53 °F 45 °F 28 °F (2006)
Cooling Degree Days 1    
Growing Degree Days 16 (Base 50)    
Moisture  
Dew Point 54 °F    
Average Humidity 65    
Maximum Humidity 93    
Minimum Humidity 43    
Precipitation  
Precipitation 0.00 in - - ()
Sea Level Pressure  
Sea Level Pressure 30.07 in    
Wind  
Wind Speed 4 mph (South)    
Max Wind Speed 13 mph    
Max Gust Speed -    
Visibility 9 miles    
Events      
Averages and records for this station are not official NWS values.
T = Trace of Precipitation, MM = Missing Value Source: NWS Daily Summary

Daily Weather History Graph

Daily Weather History Graph

Search for Another Location

Airport or City:

Trip Planner

Search our weather history database for the weather conditions in past years. The results will help you decide how hot, cold, wet, or windy it might be!

Date:

Astronomy

Oct. 24, 2012 Rise Set
Actual Time 7:06 AM CDT 6:01 PM CDT
Civil Twilight 6:39 AM CDT 6:27 PM CDT
Nautical Twilight 6:09 AM CDT 6:58 PM CDT
Astronomical Twilight 5:39 AM CDT 7:28 PM CDT
Moon 3:10 PM CDT (10/24) 2:08 AM CDT (10/24)
Length of Visible Light 11h 48m
Length of Day
10h 55m
Waxing Gibbous, 76% of the Moon is Illuminated
Oct 24
Waxing Gibbous
Oct 29
Full
Nov 6
Last Quarter
Nov 13
New
Nov 20
First Quarter

Hourly Weather History & Observations

Time (CDT) Temp. Dew Point Humidity Pressure Visibility Wind Dir Wind Speed Gust Speed Precip Events Conditions
12:55 AM 61.0 °F 50.4 °F 68% 30.07 in 10.0 mi SSW 5.8 mph - N/A   Clear
1:42 AM 60.8 °F 50.0 °F 68% 30.07 in 6.0 mi Calm Calm - N/A   Haze
1:53 AM 60.8 °F 50.0 °F 68% 30.07 in 7.0 mi Calm Calm - N/A   Clear
1:55 AM 61.5 °F 50.0 °F 66% 30.07 in 7.0 mi Calm Calm - N/A   Clear
2:55 AM 57.6 °F 50.2 °F 76% 30.08 in 10.0 mi SE 3.5 mph - N/A   Clear
3:55 AM 56.1 °F 51.1 °F 83% 30.08 in 10.0 mi Calm Calm - N/A   Clear
4:55 AM 55.0 °F 51.3 °F 87% 30.09 in 10.0 mi Calm Calm - N/A   Clear
5:55 AM 54.7 °F 51.3 °F 88% 30.11 in 10.0 mi Calm Calm - N/A   Clear
6:55 AM 53.8 °F 51.8 °F 93% 30.12 in 10.0 mi Calm Calm - N/A   Clear
7:55 AM 55.8 °F 53.8 °F 93% 30.13 in 10.0 mi Calm Calm - N/A   Clear
8:55 AM 63.0 °F 54.0 °F 72% 30.13 in 4.0 mi South 5.8 mph - N/A   Haze
9:55 AM 69.4 °F 53.1 °F 56% 30.12 in 4.0 mi SSW 9.2 mph - N/A   Haze
10:55 AM 73.9 °F 54.5 °F 51% 30.11 in 4.0 mi South 9.2 mph - N/A   Haze
11:55 AM 76.8 °F 56.3 °F 49% 30.11 in 4.0 mi SSW 9.2 mph - N/A   Haze
12:55 PM 78.6 °F 57.9 °F 49% 30.07 in 10.0 mi SSW 10.4 mph - N/A   Clear
1:55 PM 79.2 °F 57.2 °F 47% 30.04 in 10.0 mi South 12.7 mph - N/A   Clear
2:55 PM 79.9 °F 56.7 °F 45% 30.03 in 10.0 mi Variable 5.8 mph - N/A   Clear
3:55 PM 79.7 °F 55.6 °F 43% 30.02 in 10.0 mi SSE 9.2 mph - N/A   Clear
4:55 PM 78.8 °F 55.0 °F 44% 30.02 in 10.0 mi South 6.9 mph - N/A   Clear
5:55 PM 73.0 °F 55.6 °F 54% 30.02 in 10.0 mi SSW 3.5 mph - N/A   Clear
6:55 PM 73.2 °F 54.7 °F 52% 30.02 in 10.0 mi South 3.5 mph - N/A   Clear
7:55 PM 68.4 °F 54.3 °F 61% 30.03 in 10.0 mi Calm Calm - N/A   Clear
8:55 PM 67.3 °F 54.5 °F 63% 30.04 in 10.0 mi SSE 4.6 mph - N/A   Clear
9:55 PM 64.4 °F 54.0 °F 69% 30.03 in 10.0 mi SE 4.6 mph - N/A   Clear
10:55 PM 64.4 °F 54.1 °F 69% 30.04 in 10.0 mi South 4.6 mph - N/A   Clear
11:55 PM 62.8 °F 54.1 °F 73% 30.03 in 10.0 mi SSE 4.6 mph - N/A   Clear